Time,TemperatureF,DewpointF,PressureIn,WindDirection,WindDirectionDegrees,WindSpeedMPH,WindSpeedGustMPH,Humidity,HourlyPrecipIn,Conditions,Clouds,dailyrainin,SoftwareType,DateUTC
2013-01-22 00:00:00,37.9,11.3,30.01,West,278,6.0,13.0,33,0.00,CLR,,0.00,WeatherDisplay:10.37,2013-01-22 05:00:00,
2013-01-22 00:15:00,37.7,11.1,30.01,WNW,292,1.0,9.0,33,0.00,CLR,,0.00,WeatherDisplay:10.37,2013-01-22 05:15:00,
2013-01-22 00:30:00,37.5,11.0,30.02,WNW,290,2.0,13.0,33,0.00,CLR,,0.00,WeatherDisplay:10.37,2013-01-22 05:30:00,
2013-01-22 00:45:00,36.8,10.4,30.02,West,266,2.0,9.0,33,0.00,CLR,,0.00,WeatherDisplay:10.37,2013-01-22 05:45:00,
2013-01-22 01:00:00,36.3,9.2,30.02,West,263,2.0,13.0,32,0.00,CLR,,0.00,WeatherDisplay:10.37,2013-01-22 06:00:00,
2013-01-22 01:15:00,36.2,6.9,30.02,WNW,290,6.0,14.0,29,0.00,CLR,,0.00,WeatherDisplay:10.37,2013-01-22 06:15:00,
2013-01-22 01:30:00,35.8,7.3,30.03,NW,305,2.0,12.0,30,0.00,CLR,,0.00,WeatherDisplay:10.37,2013-01-22 06:30:00,
2013-01-22 01:45:00,34.9,8.7,30.04,WNW,303,1.0,9.0,33,0.00,CLR,,0.00,WeatherDisplay:10.37,2013-01-22 06:45:00,
2013-01-22 02:00:00,34.0,8.6,30.04,WNW,296,1.0,9.0,34,0.00,CLR,,0.00,WeatherDisplay:10.37,2013-01-22 07:00:00,
2013-01-22 02:15:00,33.2,8.5,30.05,WNW,299,1.0,5.0,35,0.00,CLR,,0.00,WeatherDisplay:10.37,2013-01-22 07:15:00,
2013-01-22 02:30:00,32.2,9.4,30.05,NW,304,0.0,3.0,38,0.00,CLR,,0.00,WeatherDisplay:10.37,2013-01-22 07:30:00,
2013-01-22 02:45:00,31.2,7.3,30.05,NW,304,2.0,4.0,36,0.00,CLR,,0.00,WeatherDisplay:10.37,2013-01-22 07:45:00,
2013-01-22 03:00:00,31.1,7.8,30.06,NW,312,1.0,7.0,37,0.00,CLR,,0.00,WeatherDisplay:10.37,2013-01-22 08:00:00,
2013-01-22 03:15:00,31.0,7.7,30.06,WNW,298,1.0,7.0,37,0.00,CLR,,0.00,WeatherDisplay:10.37,2013-01-22 08:15:00,
2013-01-22 03:30:00,31.0,5.9,30.06,NW,318,6.0,12.0,34,0.00,CLR,,0.00,WeatherDisplay:10.37,2013-01-22 08:30:00,
2013-01-22 03:45:00,30.8,5.0,30.07,NW,317,3.0,12.0,33,0.00,CLR,,0.00,WeatherDisplay:10.37,2013-01-22 08:45:00,
2013-01-22 04:00:00,30.5,4.8,30.08,NW,318,5.0,10.0,33,0.00,CLR,,0.00,WeatherDisplay:10.37,2013-01-22 09:00:00,
2013-01-22 04:15:00,30.2,4.5,30.08,NW,310,5.0,12.0,33,0.00,CLR,,0.00,WeatherDisplay:10.37,2013-01-22 09:15:00,
2013-01-22 04:30:00,29.6,4.0,30.08,NW,314,3.0,12.0,33,0.00,CLR,,0.00,WeatherDisplay:10.37,2013-01-22 09:30:00,
2013-01-22 04:45:00,29.1,4.9,30.08,NW,304,6.0,10.0,35,0.00,CLR,,0.00,WeatherDisplay:10.37,2013-01-22 09:45:00,
2013-01-22 05:00:00,29.1,4.8,30.09,NW,315,5.0,12.0,35,0.00,CLR,,0.00,WeatherDisplay:10.37,2013-01-22 10:00:00,
2013-01-22 05:15:00,28.8,4.5,30.10,NW,319,6.0,10.0,35,0.00,CLR,,0.00,WeatherDisplay:10.37,2013-01-22 10:15:00,
2013-01-22 05:30:00,28.5,4.3,30.11,NNW,340,3.0,12.0,35,0.00,CLR,,0.00,WeatherDisplay:10.37,2013-01-22 10:30:00,
2013-01-22 05:45:00,28.1,5.1,30.11,NNW,348,0.0,8.0,37,0.00,CLR,,0.00,WeatherDisplay:10.37,2013-01-22 10:45:00,
2013-01-22 06:00:00,27.6,4.1,30.12,North,9,0.0,7.0,36,0.00,CLR,,0.00,WeatherDisplay:10.37,2013-01-22 11:00:00,
2013-01-22 06:15:00,26.9,6.3,30.14,NNE,12,0.0,2.0,41,0.00,CLR,,0.00,WeatherDisplay:10.37,2013-01-22 11:15:00,
2013-01-22 06:30:00,26.2,6.7,30.15,NNE,12,0.0,1.0,43,0.00,CLR,,0.00,WeatherDisplay:10.37,2013-01-22 11:30:00,
2013-01-22 06:45:00,25.7,6.8,30.15,North,10,2.0,4.0,44,0.00,CLR,,0.00,WeatherDisplay:10.37,2013-01-22 11:45:00,
2013-01-22 07:00:00,25.6,6.7,30.16,NNW,347,3.0,6.0,44,0.00,CLR,,0.00,WeatherDisplay:10.37,2013-01-22 12:00:00,
2013-01-22 07:15:00,25.8,6.8,30.16,NNW,327,2.0,8.0,44,0.00,CLR,,0.00,WeatherDisplay:10.37,2013-01-22 12:15:00,
2013-01-22 07:30:00,25.9,5.9,30.17,NNW,329,0.0,8.0,42,0.00,CLR,,0.00,WeatherDisplay:10.37,2013-01-22 12:30:00,
2013-01-22 07:45:00,25.7,6.3,30.18,NNW,330,0.0,3.0,43,0.00,CLR,,0.00,WeatherDisplay:10.37,2013-01-22 12:45:00,
2013-01-22 08:00:00,25.4,6.0,30.19,NNW,330,1.0,3.0,43,0.00,CLR,,0.00,WeatherDisplay:10.37,2013-01-22 13:00:00,
2013-01-22 08:15:00,25.5,5.5,30.19,NNW,346,3.0,7.0,42,0.00,CLR,,0.00,WeatherDisplay:10.37,2013-01-22 13:15:00,
2013-01-22 08:30:00,25.9,4.3,30.20,NNW,342,5.0,8.0,39,0.00,CLR,,0.00,WeatherDisplay:10.37,2013-01-22 13:30:00,
2013-01-22 08:45:00,26.2,1.0,30.21,NNW,343,7.0,17.0,33,0.00,CLR,,0.00,WeatherDisplay:10.37,2013-01-22 13:45:00,
2013-01-22 09:00:00,26.5,-0.1,30.22,NNW,335,5.0,15.0,31,0.00,CLR,,0.00,WeatherDisplay:10.37,2013-01-22 14:00:00,
2013-01-22 09:15:00,26.8,-0.5,30.22,NNW,339,7.0,12.0,30,0.00,CLR,,0.00,WeatherDisplay:10.37,2013-01-22 14:15:00,
2013-01-22 09:30:00,27.2,-1.7,30.23,North,352,6.0,13.0,28,0.00,CLR,,0.00,WeatherDisplay:10.37,2013-01-22 14:30:00,
2013-01-22 09:45:00,28.0,-0.2,30.23,NNW,334,8.0,13.0,29,0.00,CLR,,0.00,WeatherDisplay:10.37,2013-01-22 14:45:00,
2013-01-22 10:00:00,28.3,-1.5,30.24,NW,319,7.0,16.0,27,0.00,CLR,,0.00,WeatherDisplay:10.37,2013-01-22 15:00:00,
2013-01-22 10:15:00,28.7,-0.4,30.24,NW,319,3.0,16.0,28,0.00,CLR,,0.00,WeatherDisplay:10.37,2013-01-22 15:15:00,
2013-01-22 10:30:00,29.2,-0.7,30.24,NW,324,6.0,13.0,27,0.00,CLR,,0.00,WeatherDisplay:10.37,2013-01-22 15:30:00,
2013-01-22 10:45:00,29.6,-0.3,30.25,NNW,328,9.0,15.0,27,0.00,CLR,,0.00,WeatherDisplay:10.37,2013-01-22 15:45:00,
2013-01-22 11:00:00,30.5,0.4,30.25,NW,325,6.0,14.0,27,0.00,CLR,,0.00,WeatherDisplay:10.37,2013-01-22 16:00:00,
2013-01-22 11:15:00,31.3,0.3,30.24,NW,323,3.0,12.0,26,0.00,CLR,,0.00,WeatherDisplay:10.37,2013-01-22 16:15:00,
2013-01-22 11:30:00,31.8,0.8,30.24,WNW,295,2.0,12.0,26,0.00,CLR,,0.00,WeatherDisplay:10.37,2013-01-22 16:30:00,
2013-01-22 11:45:00,32.2,0.2,30.24,NW,315,6.0,12.0,25,0.00,CLR,,0.00,WeatherDisplay:10.37,2013-01-22 16:45:00,
2013-01-22 12:00:00,32.9,1.7,30.23,WNW,290,3.0,10.0,26,0.00,CLR,,0.00,WeatherDisplay:10.37,2013-01-22 17:00:00,
2013-01-22 12:15:00,33.4,1.3,30.22,West,273,8.0,13.0,25,0.00,CLR,,0.00,WeatherDisplay:10.37,2013-01-22 17:15:00,
2013-01-22 12:30:00,33.2,1.1,30.22,NNW,336,5.0,14.0,25,0.00,CLR,,0.00,WeatherDisplay:10.37,2013-01-22 17:30:00,
2013-01-22 12:45:00,33.4,0.4,30.21,NW,320,8.0,14.0,24,0.00,CLR,,0.00,WeatherDisplay:10.37,2013-01-22 17:45:00,
2013-01-22 13:00:00,33.9,1.7,30.20,WNW,302,6.0,14.0,25,0.00,CLR,,0.00,WeatherDisplay:10.37,2013-01-22 18:00:00,
2013-01-22 13:15:00,34.6,1.4,30.19,WNW,299,7.0,14.0,24,0.00,CLR,,0.00,WeatherDisplay:10.37,2013-01-22 18:15:00,
2013-01-22 13:30:00,34.3,1.2,30.19,NNW,331,7.0,16.0,24,0.00,CLR,,0.00,WeatherDisplay:10.37,2013-01-22 18:30:00,
2013-01-22 13:45:00,34.8,3.3,30.18,WNW,293,5.0,9.0,26,0.00,CLR,,0.00,WeatherDisplay:10.37,2013-01-22 18:45:00,
2013-01-22 14:00:00,35.6,2.3,30.18,NW,308,6.0,16.0,24,0.00,CLR,,0.00,WeatherDisplay:10.37,2013-01-22 19:00:00,
2013-01-22 14:15:00,35.6,2.3,30.18,West,276,3.0,12.0,24,0.00,CLR,,0.00,WeatherDisplay:10.37,2013-01-22 19:15:00,
2013-01-22 14:30:00,35.5,2.2,30.18,NW,325,3.0,12.0,24,0.00,CLR,,0.00,WeatherDisplay:10.37,2013-01-22 19:30:00,
2013-01-22 14:45:00,35.9,1.6,30.18,WSW,256,3.0,13.0,23,0.00,CLR,,0.00,WeatherDisplay:10.37,2013-01-22 19:45:00,
2013-01-22 15:00:00,36.0,0.7,30.19,WNW,287,6.0,15.0,22,0.00,CLR,,0.00,WeatherDisplay:10.37,2013-01-22 20:00:00,
2013-01-22 15:15:00,36.0,-0.2,30.19,West,265,5.0,15.0,21,0.00,CLR,,0.00,WeatherDisplay:10.37,2013-01-22 20:15:00,
2013-01-22 15:30:00,35.8,-0.4,30.18,WNW,291,3.0,13.0,21,0.00,CLR,,0.00,WeatherDisplay:10.37,2013-01-22 20:30:00,
2013-01-22 15:45:00,35.8,0.6,30.18,WNW,299,3.0,15.0,22,0.00,CLR,,0.00,WeatherDisplay:10.37,2013-01-22 20:45:00,
2013-01-22 16:00:00,35.5,1.3,30.19,West,268,3.0,10.0,23,0.00,CLR,,0.00,WeatherDisplay:10.37,2013-01-22 21:00:00,
2013-01-22 16:15:00,35.2,-0.9,30.19,WNW,296,2.0,13.0,21,0.00,CLR,,0.00,WeatherDisplay:10.37,2013-01-22 21:15:00,
2013-01-22 16:30:00,35.3,-0.8,30.19,West,274,5.0,13.0,21,0.00,CLR,,0.00,WeatherDisplay:10.37,2013-01-22 21:30:00,
2013-01-22 16:45:00,34.7,-1.3,30.19,West,277,6.0,12.0,21,0.00,CLR,,0.00,WeatherDisplay:10.37,2013-01-22 21:45:00,
2013-01-22 17:00:00,34.4,-1.6,30.19,West,262,2.0,10.0,21,0.00,CLR,,0.00,WeatherDisplay:10.37,2013-01-22 22:00:00,
2013-01-22 17:15:00,34.0,-1.9,30.20,West,279,3.0,12.0,21,0.00,CLR,,0.00,WeatherDisplay:10.37,2013-01-22 22:15:00,
2013-01-22 17:30:00,33.6,-3.3,30.20,WNW,292,3.0,12.0,20,0.00,CLR,,0.00,WeatherDisplay:10.37,2013-01-22 22:30:00,
2013-01-22 17:45:00,33.2,-2.6,30.21,NW,316,5.0,12.0,21,0.00,CLR,,0.00,WeatherDisplay:10.37,2013-01-22 22:45:00,
2013-01-22 18:00:00,32.3,-2.4,30.21,NW,308,1.0,9.0,22,0.00,CLR,,0.00,WeatherDisplay:10.37,2013-01-22 23:00:00,
2013-01-22 18:15:00,31.7,-2.0,30.22,NW,310,1.0,6.0,23,0.00,CLR,,0.00,WeatherDisplay:10.37,2013-01-22 23:15:00,
2013-01-22 18:30:00,30.8,-1.0,30.23,NW,312,1.0,3.0,25,0.00,CLR,,0.00,WeatherDisplay:10.37,2013-01-22 23:30:00,
2013-01-22 18:45:00,29.7,-1.0,30.23,NW,312,0.0,5.0,26,0.00,CLR,,0.00,WeatherDisplay:10.37,2013-01-22 23:45:00,
2013-01-22 19:00:00,28.6,-1.3,30.22,NW,312,0.0,2.0,27,0.00,CLR,,0.00,WeatherDisplay:10.37,2013-01-23 00:00:00,
2013-01-22 19:15:00,27.5,-0.7,30.23,NW,312,0.0,1.0,29,0.00,CLR,,0.00,WeatherDisplay:10.37,2013-01-23 00:15:00,
2013-01-22 19:30:00,26.8,0.2,30.23,NW,312,0.0,1.0,31,0.00,CLR,,0.00,WeatherDisplay:10.37,2013-01-23 00:30:00,
2013-01-22 19:45:00,26.2,1.0,30.23,NW,312,0.0,0.0,33,0.00,CLR,,0.00,WeatherDisplay:10.37,2013-01-23 00:45:00,
2013-01-22 20:00:00,25.8,-0.7,30.24,NW,312,0.0,2.0,31,0.00,CLR,,0.00,WeatherDisplay:10.37,2013-01-23 01:00:00,
2013-01-22 20:15:00,26.3,-0.3,30.24,NW,312,0.0,3.0,31,0.00,CLR,,0.00,WeatherDisplay:10.37,2013-01-23 01:15:00,
2013-01-22 20:30:00,27.0,0.3,30.24,NW,312,0.0,2.0,31,0.00,FEW,,0.00,WeatherDisplay:10.37,2013-01-23 01:30:00,
2013-01-22 20:45:00,27.7,5.9,30.24,NW,312,0.0,1.0,39,0.00,FEW,,0.00,WeatherDisplay:10.37,2013-01-23 01:45:00,
2013-01-22 21:00:00,27.7,5.4,30.24,NW,312,0.0,3.0,38,0.00,FEW,,0.00,WeatherDisplay:10.37,2013-01-23 02:00:00,
2013-01-22 21:15:00,27.5,3.4,30.24,NW,311,1.0,2.0,35,0.00,FEW,,0.00,WeatherDisplay:10.37,2013-01-23 02:15:00,
2013-01-22 21:30:00,27.3,1.9,30.25,NW,311,1.0,3.0,33,0.00,BKN,,0.00,WeatherDisplay:10.37,2013-01-23 02:30:00,
2013-01-22 21:45:00,27.3,1.3,30.26,NW,323,2.0,6.0,32,0.00,BKN,,0.00,WeatherDisplay:10.37,2013-01-23 02:45:00,
2013-01-22 22:00:00,27.3,-0.1,30.27,NW,309,1.0,9.0,30,0.00,BKN,,0.00,WeatherDisplay:10.37,2013-01-23 03:00:00,
2013-01-22 22:15:00,27.0,-0.4,30.27,NW,313,2.0,5.0,30,0.00,BKN,,0.00,WeatherDisplay:10.37,2013-01-23 03:15:00,
2013-01-22 22:30:00,26.7,-1.4,30.27,NNW,339,2.0,6.0,29,0.00,CLR,,0.00,WeatherDisplay:10.37,2013-01-23 03:30:00,
2013-01-22 22:45:00,26.8,-2.0,30.26,NW,317,3.0,7.0,28,0.00,CLR,,0.00,WeatherDisplay:10.37,2013-01-23 03:45:00,
2013-01-22 23:00:00,26.7,-2.1,30.26,NW,320,0.0,10.0,28,0.00,CLR,,0.00,WeatherDisplay:10.37,2013-01-23 04:00:00,
2013-01-22 23:15:00,26.1,0.8,30.26,NW,315,0.0,3.0,33,0.00,CLR,,0.00,WeatherDisplay:10.37,2013-01-23 04:15:00,
2013-01-22 23:30:00,25.0,3.5,30.26,NW,315,0.0,2.0,39,0.00,CLR,,0.00,WeatherDisplay:10.37,2013-01-23 04:30:00,
2013-01-22 23:45:00,24.2,2.8,30.26,NW,315,0.0,4.0,39,0.00,CLR,,0.00,WeatherDisplay:10.37,2013-01-23 04:45:00,